982  
ASUS42 KILM 170414  
RWRILM  
RWRILM  
REGIONAL HOURLY WEATHER ROUNDUP  
NATIONAL WEATHER SERVICE WILMINGTON NC  
1200 AM EDT WED JUL 17 2019  
 
NOTE: "FAIR" INDICATES FEW OR NO CLOUDS BELOW 12,000 FEET WITH NO  
SIGNIFICANT WEATHER AND/OR S TO VISIBILITY
.  
   
..............WFO WILMINGTON COUNTY WARNING AREA............
 
 
   
.....COASTAL NC AND SC COUNTIES...
 
 
 
CITY SKY/WX TMP DP RH WIND PRES REMARKS
 
WILMINGTON FAIR 82 76 81 S5 30.11S  
N MYRTLE BEACH FAIR 83 78 85 S8 30.11R HX 93  
MYRTLE BEACH FAIR 83 78 85 S7 30.12R HX 93  
   
.....INLAND NC AND SC COUNTIES....
 
 
 
CITY SKY/WX TMP DP RH WIND PRES REMARKS
 
LUMBERTON NOT AVBL  
ELIZABETHTOWN FAIR 80 76 87 S7 30.11R  
WHITEVILLE FAIR 81 77 89 CALM 30.11R  
FLORENCE FAIR 83 76 79 S6 30.11R HX 91  
DARLINGTON FAIR 81 77 88 S6 30.11R  
KINGSTREE FAIR 77 77 100 CALM 30.11R  
HARTSVILLE FAIR 79 77 94 S3 30.11R  
BENNETTSVILLE FAIR 81 75 83 S3 30.10R  
CONWAY FAIR 77 75 94 CALM 30.11S  
GEORGETOWN FAIR 77 75 94 CALM 30.13R  
MARION FAIR 79 73 83 SW3 30.11R  
   
...................REST OF NORTH CAROLINA...................
 
 
   
........EASTERN NC......
 
 
 
CITY SKY/WX TMP DP RH WIND PRES REMARKS
 
CAPE HATTERAS FAIR 84 78 82 SW7 30.11S HX 95  
JACKSONVILLE FAIR 80 79 96 S5 30.11S  
MOREHEAD CITY FAIR 84 78 82 SW12 30.12R HX 95  
KENANSVILLE FAIR 79 77 94 CALM 30.10S  
NEW BERN FAIR 80 79 96 CALM 30.11S  
ELIZABETH CITY FAIR 81 77 88 S5 30.09R  
   
........CENTRAL NC......
 
 
 
CITY SKY/WX TMP DP RH WIND PRES REMARKS
 
RALEIGH DURHAM MOCLDY 81 72 74 S3 30.09S  
ROCKY MOUNT FAIR 80 71 74 S5 30.09S  
ROANOKE RAPIDS NOT AVBL  
FAYETTEVILLE FAIR 81 76 84 S6 30.10R  
HOFFMAN NOT AVBL  
   
........WESTERN NC......
 
 
 
CITY SKY/WX TMP DP RH WIND PRES REMARKS
 
CHARLOTTE MOCLDY 82 71 69 CALM 30.11S  
GREENSBORO MOCLDY 81 71 71 SW5 30.10S  
HICKORY NOT AVBL  
BOONE NOT AVBL  
ASHEVILLE NOT AVBL  
   
....................REST OF SOUTH CAROLINA..................
 
 
   
........EASTERN SC......
 
 
 
CITY SKY/WX TMP DP RH WIND PRES REMARKS
 
CHARLESTON MOCLDY 80 76 87 S5 30.11S  
BEAUFORT MCAS FAIR 83 79 88 SW3 30.12R HX 94  
HILTON HEAD N/A N/A N/A N/A MISG N/A  
   
........CENTRAL SC......
 
 
 
CITY SKY/WX TMP DP RH WIND PRES REMARKS
 
COLUMBIA FAIR 83 74 74 S5 30.10R  
ORANGEBURG FAIR 81 74 79 S3 30.12R  
SUMTER SHAW FAIR 82 75 78 S5 30.11R  
   
........WESTERN SC......
 
 
 
CITY SKY/WX TMP DP RH WIND PRES REMARKS
 
GREENVILLE NOT AVBL  
ROCK HILL FAIR 77 71 82 SW5 30.11S  
ANDERSON FAIR 76 72 87 CALM 30.12R  
CLEMSON NOT AVBL  
GREENWOOD FAIR 75 72 90 CALM 30.13S  
 
   
..................COASTAL AND OFFSHORE REPORTS...............
 
 
   
...............LOCAL PIERS AND NC RESERVE.............
 
 
 
STATION/POSITION TIME SKY/WX TEMP WIND PRES VSBY
 
AIR SEA DIR/SP/G  
(UTC) (F) (DEG/KT/KT) (MB) (MI)  
JOHNY MRCER PIER 0324 81 80 200/ 7/ 8 1019.2  
NC RESRV MASNBRO NOT AVBL  
OCEAN CREST PIER NOT AVBL  
SPRINGMAID PIER 0324 84 N/A  
 
   
...............COASTAL AND OFFSHORE BUOYS.............
 
 
 
STATION/POSITION TIME SKY/WX TEMP WIND PRES VSBY
 
AIR SEA DIR/SP/G  
(UTC) (F) (DEG/KT/KT) (MB) (MI)  
DIMNDSHOAL 41025 0350 85 85 190/ 10/ 12 1019.3S  
WVE H/P(F/S)= 1/10 SWL H/P/D(F/S/D)= 2/130/10  
 
CAPE LOOKOUT 0400 83 220/ 7/ 8 1019.8R  
ONSLOW BAY 41036 NOT AVBL  
ONSLOW BAY 41064 0308 85 85 210/ 10/ 12 1019.7R  
ONSLOW BAY 41159 0400 85 N/A  
WVE H/P(F/S)= 2/ 9  
 
MASNBO INL 41110 0340 83 N/A  
WVE H/P(F/S)= 2/10  
 
WILM HARBR 41108 0400 85 N/A  
WVE H/P(F/S)= 1/11  
 
27SE WRITB 41037 0308 82 84 240/ 10/ 14 1019.8R  
FRYING PAN 41013 0400 85 85 190/ 8/ 8 1019.7  
SUNST NRSH 41024 0308 83 86 200/ 12/ 17 1019.4R  
CAPRS NRSH 41029 0308 86 87 200/ 8/ 12 1019.5R  
EDISTO 41004 0400 85 86 190/ 10/ 12 1019.6  
 
   
.........OFFSHORE BUOYS BEYOND 100 NM OFFSHORE........
 
   
....IN A TRIANGLE---HAT TO BERMUDA TO BAHAMAS TO HAT..
 
 
 
 
STATION/POSITION TIME SKY/WX TEMP WIND PRES VSBY
 
AIR SEA DIR/SP/G  
(UTC) (F) (DEG/KT/KT) (MB) (MI)  
150E HAT 41001 0400 82 83 150/ 4/ 6 1020.9  
W BERMUDA 41048 0400 82 83 260/ 6/ 8 1021.2  
ATLANTIC S 41049 0400 83 85 100/ 6/ 8 1022.5  
E BAHAMAS 41046 0400 84 85 60/ 12/ 14 1020.5  
NE BAHAMAS 41047 0400 84 86 100/ 2/ 4 1021.7  
120E CANVRL41010 0350 85 86 160/ 6/ 8 N/A  
WVE H/P(F/S)= 2/ 8 SWL H/P/D(F/S/D)= 2/120/ 8  
 
END  
 
 
CLICK HERE TO GO TO PREVIOUS BULLETINS.

The Nexlab NC Page
The Nexlab SC Page Main Text Page